FENGYUN 1C DEB

Satellite information

Favourite Embed

Satellite Type and Status

DEBRISIN ORBIT

Key statistics

Satellite FENGYUN 1C DEB at a glance.

Uptime

9715

Days in orbit

Revolutions

≈ 14.4

Per day

Orbit

SSO

Sun Synchronous Orbit

Inclination

99.0

Latest

Satellite identification and parameters

Extended collection of information and parameters for FENGYUN 1C DEB.

Object identification

Identified? True

Debris? True

Object name: FENGYUN 1C DEB

International designator: 1999-025BJY

Object number (NORAD): 31194

Object ID (CCSDS): 31194

Country: PEOPLES REPUBLIC OF CHINA (PRC)

Current information (Y/N): Y

RCS size: SMALL

Orbital parameters

Period: 100.234 minutes

Inclination: 98.9628 deg

SMA: 7147.76 km

Apoapsis: 810.656 km

Periapsis: 728.595 km

RAAN: 234.6574 deg

Eccentricy: 0.00574034

Argument of periapsis: 282.5341 deg

Mean anomaly: 76.9426 deg

Mean motion: 14.36639451 rev/day

Mean motion (dot): 0.00004933 rev/day2

B* drag term: 0.0016598401 1/REarth

Two-line elements (TLE)

Creation date: Dec. 11, 2025, 7:14 p.m.

Reference frame: TEME

Reference center: EARTH

Epoch: Dec. 11, 2025, 3:13 p.m. UTC

TLE line 0: 0 FENGYUN 1C DEB

TLE line 1: 1 31194U 99025BJY 25345.63427254 .00004933 00000-0 16598-2 0 9995

TLE line 2: 2 31194 98.9628 234.6574 0057403 282.5341 76.9426 14.36639451971112

Live tracking on map

Real-time ground track for satellite FENGYUN 1C DEB.

In-orbit conjunctions

A list of the most updated potential collisions computed for object FENGYUN 1C DEB.

Target Orbit TCA Probability of collision Miss distance Type
COSMOS 44 LEO 2025-07-09 06:18:08 0.0001349713 240.0 (m) PAYLOAD
COSMOS 2251 LEO 2025-06-01 06:04:01 0.003398065 138.0 (m) PAYLOAD
IRIDIUM 47 DEB LEO 2025-05-09 07:27:09 0.0002965871 18.0 (m) DEBRIS
CZ-6A DEB LEO 2025-03-01 22:20:23 0.0002463125 991.0 (m) DEBRIS
FALCONSAT SSO 2024-11-15 23:47:06 0.0001169245 932.0 (m) PAYLOAD

Associated space launch

Chinese polar orbiting meteorological satellite

FENGYUN 1C DEB was lifted into orbit during the mission ‘Long March 4B | Feng Yun 1C’, on board a Long March 4B space rocket.

The launch took place on May 10, 1999, 1:33 a.m. from Launch Complex 7.

For more information about the launch, click the button.

Launch to space Long March 4B | Feng Yun 1C
Long March 4B | Feng Yun 1C

Agency: N/A

Status: Launch Successful

Launch date: May 10, 1999, 1:33 a.m. UTC

Rocket: Long March 4B

Launch pad: Launch Complex 7

Location: Taiyuan Satellite Launch Center, People's Republic of China

...

Latest news about this satellite

There are no fresh news available about this satellite. Check back as we update our databases every day.


Newsletter sign-up

Weekly statistics, charts and insights to help you stay on top of the space industry.